Location: Clandonald
(53.5720°N, 110.7141°W)
Time: 20:29:21
(UTC+00:00)

Envisat - Pass Details

Date: 28 October 2019
Orbit: 764 x 766 km, 98.1° (Epoch: 14 November)

Event Time Altitude Azimuth Distance (km) Brightness Sun altitude
Rises 00:52:29 0° 155° (SSE) 3,224 6.1 -8.3°
Reaches altitude 10° 00:54:47 10° 153° (SSE) 2,301 5.3 -8.6°
Maximum altitude 00:59:49 70° 71° (ENE) 817 3.0 -9.4°
Drops below altitude 10° 01:04:54 10° 349° (NNW) 2,317 5.5 -10.1°
Sets 01:07:13 0° 347° (NNW) 3,247 6.3 -10.5°
